Location: Bas-Clignon
(44.2000°N, 6.6333°E)
Time: 03:27:17
(UTC+00:00)

USA 81 - Pass Details

Date: 03 February 2023
Orbit: 784 x 788 km, 85.0° (Epoch: 26 March)

Event Time Altitude Azimuth Distance (km) Brightness Sun altitude
Rises 18:22:31 0° 162° (SSE) 3,269 7.1 -17.6°
Reaches altitude 10° 18:24:59 10° 154° (SSE) 2,344 6.3 -18.0°
Maximum altitude 18:29:50 39° 87° (E) 1,165 4.4 -18.9°
Drops below altitude 10° 18:34:44 10° 20° (NNE) 2,359 6.3 -19.8°
Sets 18:37:13 0° 13° (NNE) 3,292 7.1 -20.2°
